Delta Virtual Airport Information Service

New York Newark Liberty International Airport

ICAO: KEWR Country: United States
Latitude: 40.6925 Longitude: -74.1686
Latest Arrival : DAC480 (OEJN-KEWR) Latest Departure : UAL1122 (A) (KEWR-FACT)


WX CaptureLIVE
Data provided by noaa.gov | Fetched at 11:32:30

METAR : KEWR 281551Z 03006KT 10SM FEW025 FEW250 15/06 A2997 RMK AO2 SLP148 T01500061

TAF : KEWR 281504Z 2815/2918 03008KT P6SM SCT030 TEMPO 2816/2818 BKN030 FM281900 08007KT P6SM BKN040 FM290100 04007KT P6SM FEW025 BKN035 FM291400 03011G18KT P6SM BKN025


Runway Data for KEWR
Data provided by openaviationdata.com

Runway ID Mag Var Hdg Length Elevation Surface ILS Freq ILS Id ILS Slope
04L -13 38° 11003 ft 18 ft Asphalt 110.75 IEWR 3
04R -13 38° 9983 ft 18 ft Asphalt 108.7 IEZA 3
11 -13 108° 6790 ft 18 ft Asphalt 109.15 IGPR 3
22L -13 218° 9983 ft 18 ft Asphalt 108.7 ILSQ 3
22R -13 218° 11003 ft 18 ft Asphalt 110.75 IJNN 3
29 -13 288° 6790 ft 18 ft Asphalt -- -- --

New York Newark Liberty International Airport, United States
Use only for reference purposes



Not for navigational purposes.